SL-19 R/B, 36589

Orbit data source: Space-Track

SL-19 R/B, 36589 is space debris in SSO originally from a launch on Wed, 02 Jun 2010 UTC launched from the Plesetsk Missile And Space Complex (PKMTR). Debris objects in space refer to the collection of defunct objects orbiting the Earth. Examples of debris include non-operational satellites, rocket bodies, and fragments generated from explosions, collisions, or faulty payload assembly.

Loading next visibility...
Identifier
36589, 2010-023B
Orbit
SSO
Country
Flag of CISCIS
Related business
Manufacturer
Khrunichev
Mission
Spacecraft
Bus & Motor
BRIZ, S5.92
Mass
2,370 kg wet, 2,370 kg dry
Launch date (UTC)
2010-06-02 (15 years ago)
Launch vehicle
Unknown
Launch site
Plesetsk Missile And Space Complex (PKMTR)
Object type
Payload
Rocket body
Debris
Shape & HBR
Hex Cyl + 1 Rod, 2.0 m
Radar Cross Section
10.190 m², Large (>1 m²)

Expand to show TLE details & history
Last TLE update: 7 hours ago

TLE from 7 hours ago
0 SL-19 R/B
1 36589U 10023B   25307.84839713 -.00000013  00000-0  41325-4 0  9991
2 36589 100.4747 247.9579 0225556 141.2078 229.8706 13.58529279765044
Epoch: 2025-11-03T20:21Z
TLE epoch observation values (Epoch: 2025-11-03T20:21:41.512Z)
Latitude
8.92627°
Longitude
-102.46454°
Altitude
1,153.136 km
Speed
7.223 km/s
True Right ascension
16h 25m 12s
True Declination
8° 52' 35"
Sunlit
Object was in daylight at epoch
Visualization orbit readout
Latitude
Unknown
Longitude
Unknown
Altitude
Unknown
Speed
Unknown
Apparent Right ascension
Unknown
Apparent Declination
Unknown
Sunlit
N/A
Visualization observer readout
Local Sidereal Time
22:58:51
Azimuth
Unknown
Elevation
Unknown
Doppler factor
Unknown
Orbital elements
Apogee altitude
1,205.655 km
Perigee altitude
871.087 km
Semi-major axis
7,416.508 km
Eccentricity
0.02256
Inclination
100.4747°
RAAN
247.9579°
Arg. of periapsis
141.2078°
True anomaly
227.93004°
Mean anomaly
229.8706°
Eccentric anomaly
228.89679°
Mean motion
3.39816 °/min
Orbital period
105.94 mins
BSTAR
0.000041325
Loading maneuver chart data...
Computing Atmospheric mass density...
Loading historical data...
Loading historical data...
Loading historical data...
Loading historical data...
Loading historical data...
Loading historical data...
Loading historical data...
Other satellites on launch #23 in the year 2010 (2010-06-02 UTC)

Documentation

Showing up to 5 results
|